map of TLL home
TLL - Airport
Location
City:  Tallinn, Estonia
Name:Ülemiste
ICAO:EETN
IATA:TLL

Details
Type:Airport (Aerodrome, Airfield)
Use:Public/Civil, International (customs port of entry)
Latitude:59°24'48"N (59.413317)
Longitude:24°49'58"E (24.832844)
Datum:WGS 1984
Elevation:131 ft (40 m)
Variation:8.81°E (WMM2015 magnetic declination)
0.15° annual change
Runways:1
Longest:10072 × 148 ft (3070 × 45 m), paved

Time
Time Zone:UTC+2 (DST+3)
Local Time:

Weather
METAR:EETN 221920Z 16003KT 9999 FEW002 M15/M17 Q1013 R08/810295 TEMPO BKN002 BKN010
TAF:EETN 221725Z 2218/2318 17004KT 8000 SCT004 BKN020
TEMPO 2218/2220 0700 FZFG BKN002
BECMG 2220/2222 5000 -SN BKN004
TEMPO 2222/2307 2000 SN BR
BECMG 2305/2307 19014KT
TEMPO 2307/2318 2000 SHSN BKN004 SCT015CB

Related Locations
Nearby:
Farthest:CHT: 11030 mi / 17752 km
Waitangi [Tuuta], CIT, NZ

Find:

   beyond  
but within

Other Information
Maps:
NOTAMs:
Links:
Sources:

  
  • flag of Estonia
  • flag of Tallinn
  

Sectional Chart

Flight Planning
at skyvector.com

Satellite Image

Google Maps Satellite view

 

Copyright © 2004-2019 Karl L. Swartz. All rights reserved.
The Great Circle Mapper name and logo are trademarks of the Great Circle Mapper.
All other trademarks mentioned herein belong to their respective owners.
Please see credits for attibutions and further copyright information.

  Follow gcmap on Facebook Follow gcmap on Twitter Follow gcmap on Google+ GCmap on LinkedIn

hCard Microformat

Geo Microformat